Terug naar catalogus

DMSP 5D-2 F11 DEB

ActiefSSO
NORAD 28329·DEBRIS·🇺🇸 United States

Gelanceerd Nov 28, 1991 vanaf Vandenberg Space Force Base

Loading…

Volgende Passages (komende 24 uur)

TLE

VersSource: Space-Track

Epoch: Sep 13, 2026, 11:32 UTC

1 28329U 91082AS  26256.48119123  .00002978  00000-0  10036-2 0  9992
2 28329  98.9025 345.1292 0065107 314.1502  45.4340 14.36616003150590

Volg DMSP 5D-2 F11 DEB in realtime met AllMySat

Download on the App Store